User: anonymous   Login
Location: Unspecified
(0.0000°N, 0.0000°E)
Time: 06:59:46
(UTC+00:00)
Language:

COSMOS 2498 - Orbit

View from above orbital plane
View from above orbital plane
View from above satellite
View from above satellite

Ground track
Ground track

The orbit data is extracted from the following two-line orbital elements,

1 39763U 14028C   18350.72877899 +.00000023 +00000-0 +95092-4 0  9991
2 39763 082.4486 024.7489 0019460 280.2924 079.5957 12.42874682207277
Epoch (UTC): 16 December 2018 17:29:26
Eccentricity: 0.0019460
inclination: 82.4486°
perigee height: 1479 km
apogee height: 1510 km
right ascension of ascending node: 24.7489°
argument of perigee: 280.2924°
revolutions per day: 12.42874682
mean anomaly at epoch: 79.5957°
orbit number at epoch: 20727

The dashed part of the orbit path shows where the satellite is in the earth's shadow,  

DLR